sat.trackr.live / text

‹ back to catalog

STARLINK-34663

NORAD 64807 · 2025-150T

PAYLOAD ACTIVE UNKNOWN

§ Identity

Operator
Country
US
Launch date
2025-07-16
Launch site
AFWTR
Launch vehicle
Mass (kg)
RCS (m²)

Purposes: comms

External: N2YO · Heavens-Above · Gunter

§ Orbital elements

Epoch: 2026-09-20T13:07:32.929824Z

Period
96.11 min
Inclination
70.0022°
Eccentricity
0.0003577
Mean motion
14.98344759 rev/d
Perigee alt
569.5 km
Apogee alt
574.5 km
Semi-major
6,950.1 km
B*
2.6595e-4
RAAN
3.1886°
Arg perigee
268.8025°
Mean anomaly
91.2724°
Rev number
6,570

§ Raw data

STARLINK-346631 64807U 25150T   26263.54690891  .00003083  00000+0  26595-3 0  99922 64807  70.0022   3.1886 0003577 268.8025  91.2724 14.98344759 65704

JSON: /api/v1/satellites/64807 · /tle

For live sub-satellite position, see the globe view (requires WebGL).

§ Visibility from observer

Set your observer location to see the next 7 days of passes ≥ 10°. The values pass through the URL so the page stays shareable.

No JS? Fill the form by hand. The geolocation button needs JavaScript.